SCP
0 0 0 0 0 0 0 0 0 0 0 0 0 0 0 0 0 0 0 0 -0 -0 0 0 -0 -0 -0 -0 -0 -0 -0 -0 -0 -0 -0 -0 -0 0 0 0 -0 0 -0 -0 0 0 0 0 0
0 0 0 0 0 0 0 0 0 0 0 0 0 0 0 0 0 0 0 0 -0 -0 0 0 -0 -0 -0 -0 -0 -0 -0 -0 -0 -0 -0 -0 -0 -0 0 -0 0 -0 -0 -0 -0 0 0 -0 -0
0 0 0 0 0 0 0 0 0 0 0 0 0 0 0 0 0 0 0 -0 -0 0 0 0 -0 -0 -0 -0 -0 -0 -0 -0 -0 -0 -0 -0 -0 -0 0 -0 -0 -0 -0 -0 0 0 0 -0 -0
0 0 0 0 0 0 0 0 0 0 0 0 0 0 0 0 0 0 -0 -0 -0 0 0 -0 -0 -0 -0 -0 -0 -0 -0 -0 0 -0 0 -0 -0 -0 -0 -0 0 0 -0 0 0 0 0 0 0
0 0 0 0 0 0 0 0 0 0 0 0 0 0 0 0 0 -0 -0 -0 -0 0 0 0 -0 -0 -0 -0 -0 0 0 0 -0 0 0 -0 -0 0 -0 -0 -0 -0 0 0 0 0 0 0 0
0 0 0 0 0 0 0 0 0 0 0 0 0 0 0 0 -0 -0 -0 0 0 0 0 0 0 0 -0 -0 -0 0 0 0 0 0 0 0 0 0 0 -0 -0 -0 -0 -0 0 0 0 0 -0
0 0 0 0 0 0 0 0 0 0 0 -0 0 0 0 0 -0 -0 -0 -0 0 0 0 0 0 0 0 -0 -0 0 0 0 0 0 0 0 0 0 0 0 -0 -0 0 0 0 0 0 -0 -0
0 0 0 0 0 0 0 0 -0 0 0 0 0 0 -0 -0 -0 -0 -0 -0 -0 -0 -0 0 0 0 0 0 0 0 -0 0 0 0 0 0 0 0 0 0 -0 0 0 0 0 0 -0 -0 -0
0 0 0 0 0 0 0 0 0 0 0 0 0 0 0 -0 -0 -0 -0 -0 -0 -0 -0 -0 -0 0 0 0 -0 0 0 0 0 0 0 0 0 0 0 0 -0 0 0 0 0 0 -0 -0 -0
0 0 0 0 0 0 0 0 0 0 0 0 0 0 0 -0 -0 -0 -0 -0 -0 -0 -0 -0 -0 -0 -0 0 0 -0 0 0 0 0 0 0 0 0 0 0 0 0 0 0 0 0 -0 -0 -0
0 0 0 0 0 0 0 0 0 0 0 0 0 0 0 0 0 0 0 -0 -0 -0 0 -0 -0 -0 -0 0 0 0 0 0 0 0 0 0 0 0 0 0 0 0 0 0 0 0 0 0 0
0 0 0 0 0 0 0 0 0 0 0 0 0 0 0 0 0 0 0 0 0 0 0 0 0 0 0 0 0 0 0 0 0 0 0 0 0 0 0 0 0 0 0 0 0 0 0 0 0
0 0 0 0 0 0 0 0 0 0 0 0 0 0 0 0 0 0 0 0 0 0 0 0 0 0 0 0 0 0 0 0 0 0 0 0 0 0 0 0 0 0 0 0 0 0 0 0 0
0 0 0 0 0 0 0 0 0 0 0 0 0 0 0 0 0 0 0 0 0 0 0 0 0 0 0 0 0 0 0 0 0 0 0 0 0 0 0 0 0 0 0 0 0 0 0 0 0
0 0 0 0 0 0 0 0 0 0 0 0 0 0 0 0 0 0 0 0 0 0 0 0 0 0 0 0 0 0 0 0 0 0 0 0 0 0 0 0 0 0 0 0 0 0 0 0 0
0 0 0 0 0 0 0 0 0 0 0 0 0 0 0 0 0 0 0 0 0 0 0 0 0 0 0 0 0 0 0 0 0 0 0 0 0 0 0 0 0 0 0 0 0 0 0 0 0
0 0 0 0 0 0 0 0 0 0 0 0 0 0 0 0 0 0 0 0 0 0 0 0 0 0 0 0 0 0 0 0 0 0 0 0 0 0 0 0 0 0 0 0 0 0 0 0 0
0 0 0 0 0 0 0 0 0 0 0 0 0 0 0 0 0 0 0 0 0 0 0 0 0 0 0 0 0 0 0 0 0 0 0 0 0 0 0 0 0 0 0 0 0 0 0 0 0
0 0 0 0 0 0 0 0 0 0 0 0 0 0 0 0 0 0 0 0 0 0 0 0 0 0 0 0 0 0 0 0 0 0 0 0 0 0 0 0 0 0 0 0 0 0 0 0 0
0 0 0 0 0 0 0 0 0 0 0 0 0 0 0 0 0 0 0 0 0 0 0 0 0 0 0 0 0 0 0 0 0 0 0 0 0 0 0 0 0 0 0 0 0 0 0 0 0
0 0 0 0 0 0 0 0 0 0 0 0 0 0 0 0 0 0 0 0 0 0 0 0 0 0 0 0 0 0 0 0 0 0 0 0 0 0 0 0 0 0 0 0 0 0 0 0 0
0 0 0 0 0 0 0 -0 0 0 0 0 0 0 0 0 0 0 0 0 0 0 0 0 0 0 0 0 0 0 0 0 0 0 0 0 0 0 0 0 0 0 0 0 0 0 0 0 0
0 0 0 0 0 0 0 0 -0 0 0 0 0 0 0 0 0 0 0 0 0 0 0 0 0 0 0 0 0 0 0 0 0 0 0 0 0 0 0 0 0 0 0 0 0 0 0 0 0
0 0 0 0 0 0 0 0 -0 0 0 0 0 0 0 0 0 0 0 0 0 0 0 0 0 0 0 0 0 0 0 0 0 0 0 0 0 0 0 0 0 0 0 0 0 0 0 0 0
0 0 0 0 0 0 0 0 0 0 0 0 0 0 0 0 0 0 0 0 0 0 0 0 0 0 0 0 0 0 0 0 0 0 0 0 0 0 0 0 0 0 0 0 0 0 0 0 0
0 0 0 0 0 0 0 0 0 -0 0 0 0 0 0 0 0 0 0 0 0 0 0 0 0 0 0 0 0 0 0 0 0 0 0 0 0 0 0 0 0 0 0 0 0 0 0 0 0
0 0 0 0 0 0 0 0 0 0 0 0 0 0 0 0 0 0 0 0 0 0 0 0 0 0 0 0 0 0 0 0 0 0 0 0 0 0 0 0 0 0 0 0 0 0 0 0 0
0 0 0 0 0 0 0 0 0 0 0 0 0 0 0 0 0 0 0 0 0 0 0 0 0 0 0 0 0 0 0 0 0 0 0 0 0 0 0 0 0 0 0 0 0 0 0 0 0
0 0 0 0 0 0 0 0 -0 0 0 0 0 0 0 0 0 0 0 0 0 0 0 0 0 0 0 0 0 0 0 0 0 0 0 0 0 0 0 0 0 0 0 0 0 0 0 0 0
0 0 0 0 0 0 0 0 0 0 0 0 0 0 0 0 0 0 0 0 0 0 0 0 0 0 0 0 0 0 0 0 0 0 0 0 0 0 0 0 0 0 0 0 0 0 0 0 0
Wind_Speed_500mb
18 15 6 11 6 9 4 7 1 7 4 2 8 10 14 8 6 6 38 33 39 42 39 35 30 28 25 23 23 21 21 21 20 20 20 18 12 7 8 21 21 22 25 27 29 32 31 30 26
17 10 11 6 8 6 8 4 10 7 11 36 20 16 9 4 10 22 48 35 36 40 39 36 31 28 26 24 23 23 20 17 15 13 15 17 14 8 18 16 19 20 23 26 28 28 27 26 21
18 4 8 8 7 8 9 8 11 12 29 6 9 16 6 8 12 47 33 39 42 40 37 34 30 27 25 23 22 24 24 20 14 13 10 24 20 16 14 14 19 16 18 22 23 23 24 21 17
7 4 7 8 6 7 8 11 14 15 9 6 22 12 9 4 22 34 38 37 41 38 34 32 28 26 24 22 20 22 24 23 21 15 10 15 23 15 15 14 16 18 18 19 19 19 19 17 15
3 4 6 5 4 3 4 17 29 10 12 13 9 8 5 21 16 25 39 37 36 39 35 31 29 26 24 21 19 17 18 20 21 18 15 16 18 19 16 14 14 15 16 19 19 18 17 14 11
1 6 7 4 5 2 2 27 15 15 16 18 13 15 11 29 16 28 34 33 33 39 36 30 29 24 22 20 18 15 12 17 20 17 16 14 14 16 17 12 12 15 14 15 16 15 14 12 9
8 7 9 6 6 5 11 28 14 18 20 13 27 10 10 29 26 30 35 29 33 39 37 32 29 26 24 21 18 16 12 12 14 13 13 14 12 11 12 11 10 9 11 10 10 11 9 9 7
1 8 9 5 11 10 13 29 21 33 13 25 24 13 12 37 35 36 36 29 32 39 36 34 32 29 26 24 22 19 16 13 11 9 9 16 13 12 12 10 9 6 6 8 9 10 10 9 9
2 7 5 8 12 7 25 10 21 18 27 18 22 11 10 43 45 46 42 37 34 36 35 37 35 32 28 26 25 25 23 20 17 15 12 13 14 13 14 13 13 10 8 6 7 9 11 11 11
6 6 17 6 4 6 15 19 31 17 21 11 23 21 35 46 55 56 54 51 45 45 38 32 39 37 33 30 28 27 27 26 24 21 18 15 15 15 14 14 16 14 11 9 8 9 11 13 15
8 9 8 4 2 5 15 11 10 23 9 25 42 40 54 53 57 56 54 49 43 38 36 35 36 39 38 34 31 30 29 27 27 25 23 21 21 21 22 21 19 18 16 14 15 15 15 15 18
6 13 8 4 2 1 12 6 7 36 15 40 41 45 57 57 58 58 56 51 48 43 34 32 33 40 39 36 36 32 32 30 29 27 27 27 26 25 24 24 23 22 20 21 22 21 21 21 21
8 10 10 6 5 3 2 6 7 29 13 30 42 55 58 56 52 53 51 47 44 45 40 37 33 34 35 37 36 36 34 32 28 30 29 30 30 28 26 24 24 23 24 23 25 25 24 25 25
18 15 9 11 11 7 3 5 2 18 23 25 48 59 60 58 55 56 56 53 51 46 44 38 36 34 36 36 34 35 35 35 35 33 33 32 31 29 30 27 27 26 25 23 25 26 27 27 28
8 8 3 11 14 8 6 10 16 18 28 26 47 61 63 59 58 59 51 52 50 47 43 43 38 37 40 41 38 36 35 36 37 38 36 39 37 34 34 32 31 28 28 28 29 29 31 30 29
10 6 7 4 18 9 18 14 19 35 28 32 45 60 66 63 61 57 54 52 49 48 46 41 41 41 40 41 40 40 38 39 40 39 37 36 37 36 34 34 34 29 31 34 35 33 34 34 33
5 9 9 7 22 9 12 11 16 15 49 41 36 52 62 65 65 63 57 53 51 47 44 44 45 45 41 39 37 36 37 40 42 43 41 42 42 39 39 38 36 33 35 37 38 38 39 38 37
11 7 8 14 11 13 13 18 12 13 31 41 41 54 54 64 70 64 59 56 54 52 49 46 47 46 44 42 39 38 39 41 41 41 43 42 43 42 46 46 45 42 45 44 42 42 41 44 41
12 7 11 4 5 5 14 14 30 33 27 30 39 41 48 63 66 63 68 65 67 66 65 62 57 49 48 47 47 47 45 44 43 40 36 37 39 41 42 47 46 46 46 44 47 49 48 48 44
6 8 7 5 2 7 13 16 23 21 20 53 58 59 49 45 48 72 66 66 73 70 72 73 69 60 56 55 49 48 41 42 40 38 37 37 39 41 45 46 46 45 44 43 44 47 51 54 48
8 10 8 4 6 0 9 15 14 17 39 58 65 65 60 58 56 54 61 72 75 75 72 74 76 68 63 60 55 57 57 52 46 45 44 41 42 43 43 51 48 46 46 47 45 45 46 52 53
23 13 5 2 5 7 3 17 13 14 18 17 52 73 80 78 73 71 68 60 55 56 62 66 72 69 69 67 65 61 59 57 50 49 50 47 42 40 40 41 41 45 47 48 46 47 47 46 50
10 13 15 9 5 5 4 6 13 5 13 15 34 76 94 96 93 91 83 75 60 56 51 52 60 63 66 66 64 62 63 59 56 53 51 51 45 43 44 43 43 46 45 48 44 47 45 47 51
15 11 12 9 6 12 16 13 11 12 12 12 23 60 73 68 64 73 81 76 74 66 63 59 58 57 62 63 62 62 61 60 61 59 57 55 56 52 49 47 46 43 38 47 43 42 49 50 49
7 15 3 3 1 16 5 14 38 9 14 16 20 50 45 38 48 47 51 72 71 64 55 52 53 55 57 59 59 61 64 67 68 67 59 57 57 57 55 52 50 48 42 45 40 43 47 45 44
24 21 11 14 9 5 3 18 13 22 35 42 45 47 52 44 33 35 35 49 66 63 53 50 48 49 51 53 56 61 65 63 59 56 54 51 55 58 58 51 48 48 46 43 48 44 46 47 41
9 23 10 8 4 4 10 15 16 18 20 25 43 53 69 48 34 33 36 41 58 55 52 48 46 45 46 46 45 42 41 40 40 40 43 47 48 49 47 46 45 48 42 39 41 34 39 38 42
12 14 12 3 4 8 9 9 12 10 16 17 16 32 42 48 46 30 36 41 44 42 40 39 37 37 37 36 35 37 35 33 31 30 31 36 42 46 46 44 40 39 39 40 35 32 31 27 29
8 11 8 9 10 9 4 12 13 15 14 12 14 14 21 24 30 35 41 40 39 39 37 34 33 33 35 35 34 33 31 30 31 32 30 35 39 41 42 39 38 39 35 35 27 27 26 25 27
31 35 35 15 23 15 4 13 7 10 4 4 15 21 19 17 20 32 40 40 40 39 36 34 34 34 36 35 34 33 32 33 35 38 40 41 40 41 41 39 39 38 34 32 28 26 24 23 20
Wind_Direction_500mb
334 334 259 161 67 68 172 234 119 131 131 193 124 138 138 66 139 192 145 155 160 160 160 161 161 159 160 163 169 162 153 149 154 160 166 182 184 164 153 112 104 107 104 104 109 117 121 120 117
329 319 159 135 91 88 264 240 179 182 139 118 84 91 63 105 128 147 151 152 165 165 162 164 165 164 164 165 170 175 176 172 164 158 168 166 163 144 133 121 126 112 111 112 119 122 125 125 119
326 243 174 102 110 175 204 196 174 131 147 146 104 86 83 140 170 158 160 155 167 170 165 166 169 168 169 168 172 179 183 188 187 178 157 164 165 163 145 133 114 106 119 116 119 125 132 128 124
320 169 73 97 200 224 202 176 168 139 129 148 132 69 100 178 157 163 162 159 168 174 169 170 171 173 171 164 163 163 166 179 187 186 187 167 168 169 150 151 138 138 126 127 124 125 130 133 135
285 104 64 110 227 235 205 165 162 141 143 145 146 145 103 146 151 170 167 168 176 176 174 174 174 174 172 167 161 162 166 176 178 183 177 166 156 170 171 159 154 145 147 140 145 147 143 142 142
79 88 67 186 221 104 126 166 172 150 158 150 113 114 149 171 180 173 174 172 179 182 179 179 174 174 175 174 171 173 174 179 170 173 173 166 165 167 171 177 172 169 163 164 164 158 159 161 158
109 88 185 188 201 149 195 177 177 169 157 190 148 118 177 183 187 183 179 176 182 190 189 185 183 179 180 184 185 186 186 175 168 173 179 185 182 182 188 188 192 184 182 186 185 188 180 172 178
58 96 144 228 184 221 181 168 195 171 183 156 163 168 192 182 178 177 174 178 185 193 196 195 193 191 190 191 192 196 198 198 193 198 189 193 189 195 206 210 206 212 195 206 211 214 222 208 209
261 78 181 195 155 238 162 153 176 175 154 169 195 210 212 174 172 176 178 183 193 199 203 205 203 203 200 199 202 199 203 208 211 221 220 211 199 202 213 219 223 225 221 219 230 232 235 239 243
120 142 199 211 187 242 196 172 163 161 163 184 190 189 168 175 177 183 187 193 194 204 206 209 212 209 210 208 209 211 210 212 217 224 233 231 222 223 227 233 228 230 236 243 248 249 247 249 254
166 199 204 200 236 275 177 177 167 148 221 191 183 168 172 178 185 193 197 201 201 201 212 215 216 216 217 218 217 218 219 219 226 230 235 238 237 237 242 242 243 242 240 250 259 262 266 265 263
169 212 216 218 240 52 152 182 202 180 202 208 190 184 176 183 192 198 202 204 207 212 215 217 219 219 221 221 225 224 225 224 226 231 237 240 244 246 249 249 247 250 257 261 268 272 270 270 270
186 189 196 201 251 328 218 162 184 225 220 198 191 182 185 190 195 204 208 209 212 216 217 217 219 219 223 226 226 226 227 229 231 235 237 241 244 248 253 251 253 255 260 270 273 273 273 274 274
213 186 197 236 249 252 234 260 175 228 214 196 192 192 195 197 198 203 209 213 215 218 220 218 223 226 228 230 230 233 235 235 234 236 237 242 244 246 250 253 256 260 267 273 274 272 273 273 275
155 149 309 205 195 223 193 277 231 230 208 201 196 200 202 206 206 208 209 212 217 219 221 224 226 231 232 236 238 239 242 242 242 242 243 245 245 247 252 256 258 263 270 274 276 276 277 279 282
129 100 175 253 159 220 155 251 256 219 194 205 203 205 208 211 215 216 217 221 223 226 224 224 228 230 234 237 241 244 248 252 254 248 246 247 248 247 249 255 261 267 268 269 271 276 277 281 285
333 193 181 310 202 143 181 240 245 199 212 216 214 217 217 218 219 220 222 226 229 230 229 230 230 235 237 240 241 245 249 252 255 257 259 254 254 257 249 252 256 260 265 268 271 274 278 282 287
169 174 199 187 221 200 204 238 246 187 210 225 230 228 229 228 227 225 227 227 230 232 233 234 236 238 239 239 239 242 247 248 247 249 255 260 255 258 257 261 264 266 265 267 270 276 278 282 285
141 179 191 222 269 178 243 237 247 234 224 227 230 231 236 238 233 232 235 235 234 234 233 234 235 234 236 236 237 239 247 249 248 251 260 263 258 256 253 259 262 264 269 270 272 275 277 278 282
139 167 199 287 224 175 291 264 256 232 228 234 236 242 249 247 244 236 232 233 236 238 239 236 236 235 235 236 244 253 263 258 255 258 262 261 259 255 252 256 262 270 274 274 275 276 278 277 277
204 186 168 145 352 165 329 275 232 252 232 243 245 250 254 254 249 238 229 233 239 241 241 241 238 236 238 240 243 245 247 250 253 256 258 260 263 260 253 258 262 266 270 274 276 275 277 280 277
230 164 165 250 71 241 33 277 264 245 240 224 238 245 250 252 248 243 233 231 235 238 237 239 237 236 238 240 243 245 249 254 266 273 274 269 267 264 258 255 254 261 264 266 272 278 278 277 273
228 154 191 164 147 17 208 307 263 275 260 247 236 242 246 247 247 246 240 238 238 238 234 228 229 231 235 238 241 243 244 252 263 267 266 259 257 253 247 241 244 249 255 267 269 269 273 274 274
146 89 58 55 97 257 211 183 214 200 204 248 247 247 248 253 251 252 246 240 239 238 234 234 232 233 235 234 237 239 244 253 259 265 268 255 251 253 252 248 249 247 259 267 268 272 271 271 269
137 135 33 11 2 235 289 189 247 225 238 224 239 254 262 263 256 255 245 232 231 235 231 226 227 229 234 238 243 246 249 253 257 262 262 255 250 248 250 251 250 254 251 264 271 277 276 270 269
202 182 159 182 203 234 166 232 248 230 260 250 256 260 267 263 262 249 243 228 223 226 222 225 229 234 237 237 241 246 252 257 257 256 253 252 249 246 247 252 251 260 252 260 266 266 262 270 265
188 214 162 107 46 65 216 289 291 257 266 253 253 252 252 256 255 256 232 216 216 220 224 227 229 232 236 240 246 248 250 252 253 253 250 247 239 234 236 244 243 250 251 253 267 248 255 273 261
176 143 200 117 143 257 257 270 242 320 272 270 274 264 265 263 258 242 210 202 204 208 213 219 227 235 242 244 244 248 248 249 252 251 245 239 234 235 233 230 236 242 248 254 251 250 246 255 249
172 194 191 160 164 200 265 260 220 248 257 263 272 288 285 262 232 222 207 202 202 205 213 224 234 235 235 238 247 247 247 250 247 244 232 233 233 234 233 236 246 249 238 246 235 231 237 237 242
228 212 203 200 212 237 280 260 276 192 47 309 324 308 279 277 247 222 211 208 207 211 219 228 234 237 246 249 248 246 245 239 233 231 231 232 237 243 244 239 235 233 228 224 220 224 232 240 249
Wind_Speed_850mb
18 15 6 11 6 9 4 7 1 7 4 2 8 10 14 8 6 6 38 33 39 42 39 35 30 28 25 23 23 21 21 21 20 20 20 18 12 7 8 21 21 22 25 27 29 32 31 30 26
17 10 11 6 8 6 8 4 10 7 11 36 20 16 9 4 10 22 48 35 36 40 39 36 31 28 26 24 23 23 20 17 15 13 15 17 14 8 18 16 19 20 23 26 28 28 27 26 21
18 4 8 8 7 8 9 8 11 12 29 6 9 16 6 8 12 47 33 39 42 40 37 34 30 27 25 23 22 24 24 20 14 13 10 24 20 16 14 14 19 16 18 22 23 23 24 21 17
7 4 7 8 6 7 8 11 14 15 9 6 22 12 9 4 22 34 38 37 41 38 34 32 28 26 24 22 20 22 24 23 21 15 10 15 23 15 15 14 16 18 18 19 19 19 19 17 15
3 4 6 5 4 3 4 17 29 10 12 13 9 8 5 21 16 25 39 37 36 39 35 31 29 26 24 21 19 17 18 20 21 18 15 16 18 19 16 14 14 15 16 19 19 18 17 14 11
1 6 7 4 5 2 2 27 15 15 16 18 13 15 11 29 16 28 34 33 33 39 36 30 29 24 22 20 18 15 12 17 20 17 16 14 14 16 17 12 12 15 14 15 16 15 14 12 9
8 7 9 6 6 5 11 28 14 18 20 13 27 10 10 29 26 30 35 29 33 39 37 32 29 26 24 21 18 16 12 12 14 13 13 14 12 11 12 11 10 9 11 10 10 11 9 9 7
1 8 9 5 11 10 13 29 21 33 13 25 24 13 12 37 35 36 36 29 32 39 36 34 32 29 26 24 22 19 16 13 11 9 9 16 13 12 12 10 9 6 6 8 9 10 10 9 9
2 7 5 8 12 7 25 10 21 18 27 18 22 11 10 43 45 46 42 37 34 36 35 37 35 32 28 26 25 25 23 20 17 15 12 13 14 13 14 13 13 10 8 6 7 9 11 11 11
6 6 17 6 4 6 15 19 31 17 21 11 23 21 35 46 55 56 54 51 45 45 38 32 39 37 33 30 28 27 27 26 24 21 18 15 15 15 14 14 16 14 11 9 8 9 11 13 15
8 9 8 4 2 5 15 11 10 23 9 25 42 40 54 53 57 56 54 49 43 38 36 35 36 39 38 34 31 30 29 27 27 25 23 21 21 21 22 21 19 18 16 14 15 15 15 15 18
6 13 8 4 2 1 12 6 7 36 15 40 41 45 57 57 58 58 56 51 48 43 34 32 33 40 39 36 36 32 32 30 29 27 27 27 26 25 24 24 23 22 20 21 22 21 21 21 21
8 10 10 6 5 3 2 6 7 29 13 30 42 55 58 56 52 53 51 47 44 45 40 37 33 34 35 37 36 36 34 32 28 30 29 30 30 28 26 24 24 23 24 23 25 25 24 25 25
18 15 9 11 11 7 3 5 2 18 23 25 48 59 60 58 55 56 56 53 51 46 44 38 36 34 36 36 34 35 35 35 35 33 33 32 31 29 30 27 27 26 25 23 25 26 27 27 28
8 8 3 11 14 8 6 10 16 18 28 26 47 61 63 59 58 59 51 52 50 47 43 43 38 37 40 41 38 36 35 36 37 38 36 39 37 34 34 32 31 28 28 28 29 29 31 30 29
10 6 7 4 18 9 18 14 19 35 28 32 45 60 66 63 61 57 54 52 49 48 46 41 41 41 40 41 40 40 38 39 40 39 37 36 37 36 34 34 34 29 31 34 35 33 34 34 33
5 9 9 7 22 9 12 11 16 15 49 41 36 52 62 65 65 63 57 53 51 47 44 44 45 45 41 39 37 36 37 40 42 43 41 42 42 39 39 38 36 33 35 37 38 38 39 38 37
11 7 8 14 11 13 13 18 12 13 31 41 41 54 54 64 70 64 59 56 54 52 49 46 47 46 44 42 39 38 39 41 41 41 43 42 43 42 46 46 45 42 45 44 42 42 41 44 41
12 7 11 4 5 5 14 14 30 33 27 30 39 41 48 63 66 63 68 65 67 66 65 62 57 49 48 47 47 47 45 44 43 40 36 37 39 41 42 47 46 46 46 44 47 49 48 48 44
6 8 7 5 2 7 13 16 23 21 20 53 58 59 49 45 48 72 66 66 73 70 72 73 69 60 56 55 49 48 41 42 40 38 37 37 39 41 45 46 46 45 44 43 44 47 51 54 48
8 10 8 4 6 0 9 15 14 17 39 58 65 65 60 58 56 54 61 72 75 75 72 74 76 68 63 60 55 57 57 52 46 45 44 41 42 43 43 51 48 46 46 47 45 45 46 52 53
23 13 5 2 5 7 3 17 13 14 18 17 52 73 80 78 73 71 68 60 55 56 62 66 72 69 69 67 65 61 59 57 50 49 50 47 42 40 40 41 41 45 47 48 46 47 47 46 50
10 13 15 9 5 5 4 6 13 5 13 15 34 76 94 96 93 91 83 75 60 56 51 52 60 63 66 66 64 62 63 59 56 53 51 51 45 43 44 43 43 46 45 48 44 47 45 47 51
15 11 12 9 6 12 16 13 11 12 12 12 23 60 73 68 64 73 81 76 74 66 63 59 58 57 62 63 62 62 61 60 61 59 57 55 56 52 49 47 46 43 38 47 43 42 49 50 49
7 15 3 3 1 16 5 14 38 9 14 16 20 50 45 38 48 47 51 72 71 64 55 52 53 55 57 59 59 61 64 67 68 67 59 57 57 57 55 52 50 48 42 45 40 43 47 45 44
24 21 11 14 9 5 3 18 13 22 35 42 45 47 52 44 33 35 35 49 66 63 53 50 48 49 51 53 56 61 65 63 59 56 54 51 55 58 58 51 48 48 46 43 48 44 46 47 41
9 23 10 8 4 4 10 15 16 18 20 25 43 53 69 48 34 33 36 41 58 55 52 48 46 45 46 46 45 42 41 40 40 40 43 47 48 49 47 46 45 48 42 39 41 34 39 38 42
12 14 12 3 4 8 9 9 12 10 16 17 16 32 42 48 46 30 36 41 44 42 40 39 37 37 37 36 35 37 35 33 31 30 31 36 42 46 46 44 40 39 39 40 35 32 31 27 29
8 11 8 9 10 9 4 12 13 15 14 12 14 14 21 24 30 35 41 40 39 39 37 34 33 33 35 35 34 33 31 30 31 32 30 35 39 41 42 39 38 39 35 35 27 27 26 25 27
31 35 35 15 23 15 4 13 7 10 4 4 15 21 19 17 20 32 40 40 40 39 36 34 34 34 36 35 34 33 32 33 35 38 40 41 40 41 41 39 39 38 34 32 28 26 24 23 20
Wind_Direction_850mb
334 334 259 161 67 68 172 234 119 131 131 193 124 138 138 66 139 192 145 155 160 160 160 161 161 159 160 163 169 162 153 149 154 160 166 182 184 164 153 112 104 107 104 104 109 117 121 120 117
329 319 159 135 91 88 264 240 179 182 139 118 84 91 63 105 128 147 151 152 165 165 162 164 165 164 164 165 170 175 176 172 164 158 168 166 163 144 133 121 126 112 111 112 119 122 125 125 119
326 243 174 102 110 175 204 196 174 131 147 146 104 86 83 140 170 158 160 155 167 170 165 166 169 168 169 168 172 179 183 188 187 178 157 164 165 163 145 133 114 106 119 116 119 125 132 128 124
320 169 73 97 200 224 202 176 168 139 129 148 132 69 100 178 157 163 162 159 168 174 169 170 171 173 171 164 163 163 166 179 187 186 187 167 168 169 150 151 138 138 126 127 124 125 130 133 135
285 104 64 110 227 235 205 165 162 141 143 145 146 145 103 146 151 170 167 168 176 176 174 174 174 174 172 167 161 162 166 176 178 183 177 166 156 170 171 159 154 145 147 140 145 147 143 142 142
79 88 67 186 221 104 126 166 172 150 158 150 113 114 149 171 180 173 174 172 179 182 179 179 174 174 175 174 171 173 174 179 170 173 173 166 165 167 171 177 172 169 163 164 164 158 159 161 158
109 88 185 188 201 149 195 177 177 169 157 190 148 118 177 183 187 183 179 176 182 190 189 185 183 179 180 184 185 186 186 175 168 173 179 185 182 182 188 188 192 184 182 186 185 188 180 172 178
58 96 144 228 184 221 181 168 195 171 183 156 163 168 192 182 178 177 174 178 185 193 196 195 193 191 190 191 192 196 198 198 193 198 189 193 189 195 206 210 206 212 195 206 211 214 222 208 209
261 78 181 195 155 238 162 153 176 175 154 169 195 210 212 174 172 176 178 183 193 199 203 205 203 203 200 199 202 199 203 208 211 221 220 211 199 202 213 219 223 225 221 219 230 232 235 239 243
120 142 199 211 187 242 196 172 163 161 163 184 190 189 168 175 177 183 187 193 194 204 206 209 212 209 210 208 209 211 210 212 217 224 233 231 222 223 227 233 228 230 236 243 248 249 247 249 254
166 199 204 200 236 275 177 177 167 148 221 191 183 168 172 178 185 193 197 201 201 201 212 215 216 216 217 218 217 218 219 219 226 230 235 238 237 237 242 242 243 242 240 250 259 262 266 265 263
169 212 216 218 240 52 152 182 202 180 202 208 190 184 176 183 192 198 202 204 207 212 215 217 219 219 221 221 225 224 225 224 226 231 237 240 244 246 249 249 247 250 257 261 268 272 270 270 270
186 189 196 201 251 328 218 162 184 225 220 198 191 182 185 190 195 204 208 209 212 216 217 217 219 219 223 226 226 226 227 229 231 235 237 241 244 248 253 251 253 255 260 270 273 273 273 274 274
213 186 197 236 249 252 234 260 175 228 214 196 192 192 195 197 198 203 209 213 215 218 220 218 223 226 228 230 230 233 235 235 234 236 237 242 244 246 250 253 256 260 267 273 274 272 273 273 275
155 149 309 205 195 223 193 277 231 230 208 201 196 200 202 206 206 208 209 212 217 219 221 224 226 231 232 236 238 239 242 242 242 242 243 245 245 247 252 256 258 263 270 274 276 276 277 279 282
129 100 175 253 159 220 155 251 256 219 194 205 203 205 208 211 215 216 217 221 223 226 224 224 228 230 234 237 241 244 248 252 254 248 246 247 248 247 249 255 261 267 268 269 271 276 277 281 285
333 193 181 310 202 143 181 240 245 199 212 216 214 217 217 218 219 220 222 226 229 230 229 230 230 235 237 240 241 245 249 252 255 257 259 254 254 257 249 252 256 260 265 268 271 274 278 282 287
169 174 199 187 221 200 204 238 246 187 210 225 230 228 229 228 227 225 227 227 230 232 233 234 236 238 239 239 239 242 247 248 247 249 255 260 255 258 257 261 264 266 265 267 270 276 278 282 285
141 179 191 222 269 178 243 237 247 234 224 227 230 231 236 238 233 232 235 235 234 234 233 234 235 234 236 236 237 239 247 249 248 251 260 263 258 256 253 259 262 264 269 270 272 275 277 278 282
139 167 199 287 224 175 291 264 256 232 228 234 236 242 249 247 244 236 232 233 236 238 239 236 236 235 235 236 244 253 263 258 255 258 262 261 259 255 252 256 262 270 274 274 275 276 278 277 277
204 186 168 145 352 165 329 275 232 252 232 243 245 250 254 254 249 238 229 233 239 241 241 241 238 236 238 240 243 245 247 250 253 256 258 260 263 260 253 258 262 266 270 274 276 275 277 280 277
230 164 165 250 71 241 33 277 264 245 240 224 238 245 250 252 248 243 233 231 235 238 237 239 237 236 238 240 243 245 249 254 266 273 274 269 267 264 258 255 254 261 264 266 272 278 278 277 273
228 154 191 164 147 17 208 307 263 275 260 247 236 242 246 247 247 246 240 238 238 238 234 228 229 231 235 238 241 243 244 252 263 267 266 259 257 253 247 241 244 249 255 267 269 269 273 274 274
146 89 58 55 97 257 211 183 214 200 204 248 247 247 248 253 251 252 246 240 239 238 234 234 232 233 235 234 237 239 244 253 259 265 268 255 251 253 252 248 249 247 259 267 268 272 271 271 269
137 135 33 11 2 235 289 189 247 225 238 224 239 254 262 263 256 255 245 232 231 235 231 226 227 229 234 238 243 246 249 253 257 262 262 255 250 248 250 251 250 254 251 264 271 277 276 270 269
202 182 159 182 203 234 166 232 248 230 260 250 256 260 267 263 262 249 243 228 223 226 222 225 229 234 237 237 241 246 252 257 257 256 253 252 249 246 247 252 251 260 252 260 266 266 262 270 265
188 214 162 107 46 65 216 289 291 257 266 253 253 252 252 256 255 256 232 216 216 220 224 227 229 232 236 240 246 248 250 252 253 253 250 247 239 234 236 244 243 250 251 253 267 248 255 273 261
176 143 200 117 143 257 257 270 242 320 272 270 274 264 265 263 258 242 210 202 204 208 213 219 227 235 242 244 244 248 248 249 252 251 245 239 234 235 233 230 236 242 248 254 251 250 246 255 249
172 194 191 160 164 200 265 260 220 248 257 263 272 288 285 262 232 222 207 202 202 205 213 224 234 235 235 238 247 247 247 250 247 244 232 233 233 234 233 236 246 249 238 246 235 231 237 237 242
228 212 203 200 212 237 280 260 276 192 47 309 324 308 279 277 247 222 211 208 207 211 219 228 234 237 246 249 248 246 245 239 233 231 231 232 237 243 244 239 235 233 228 224 220 224 232 240 249